Location: Newark
(51.0500°N, 12.4500°E)
Time: 00:26:28
(UTC+00:00)

Tiros 1 - Pass Details

Date: 23 February 2020
Orbit: 630 x 664 km, 48.4° (Epoch: 06 April)

Event Time Altitude Azimuth Distance (km) Brightness Sun altitude
Rises 04:48:41 0° 273° (W) 2,921 - -13.3°
Reaches altitude 10° 04:51:02 10° 269° (W) 2,010 - -12.9°
Exits shadow 04:52:24 19° 264° (W) 1,506 8.4 -12.7°
Maximum altitude 04:55:33 55° 193° (SSW) 761 7.4 -12.2°
Drops below altitude 10° 05:00:03 10° 116° (ESE) 2,007 10.8 -11.5°
Sets 05:02:24 0° 112° (ESE) 2,916 12.0 -11.1°
